Flag for U.S.A. Weather past 2 weeks in Salem, Oregon, U.S.A.

Now
74 °F

Clear.


Feels Like: 77 °F
Forecast: 59 / 94 °F
Wind: No wind

Location: McNary Field

Current Time: Jul 4, 2015 at 12:16:17 AM

Latest Report: Jul 3, 2015 at 10:56 PM


Visibility: 10 mi

Pressure: 29.85 "Hg

Humidity: 45%

Dew point: 51 °F

Location of SalemLocation

Historic Weather in Salem — Graph

°F

Salem temperature yesterday

Maximum temperature yesterday: 98 °F (at 3:56 PM)
Minimum temperature yesterday: 62 °F (at 5:56 AM)
Average temperature yesterday: 80 °F

Past Weeks' High & Low Weather Summary

 TemperatureHumidityPressure
High99 °F (Jun 26, 4:56 PM)89% (Jun 22, 5:56 AM)30.15 "Hg (Jun 22, 5:56 AM)
Low50 °F (Jun 22, 3:56 AM)12% (Jul 3, 3:56 PM)29.80 "Hg (Jul 3, 6:56 PM)
Average74 °F49%29.98 "Hg
* Reported Jun 18 10:56 PM — Jul 3 10:56 PM, Salem, Weather by CustomWeather, © 2015

Note: Actual official high and low records may vary slightly from our data, if they occured in-between our weather recording intervals... More about our weather records

Advertising

Salem weather history for previous 24 hours

 ConditionsComfort  
Time TempWeatherWind HumidityBarometerVisibility
10:56 PM
Fri, Jul 3
74 °FClear.No wind45%29.85 "Hg10 mi
9:56 PM78 °FSunny.8 mph40%29.85 "Hg10 mi
8:56 PM81 °FSunny.13 mph37%29.83 "Hg10 mi
7:56 PM85 °FSunny.13 mph34%29.81 "Hg10 mi
6:56 PM90 °FSunny.13 mph28%29.80 "Hg10 mi
5:56 PM97 °FSunny.8 mph20%29.80 "Hg10 mi
4:56 PM98 °FSunny.9 mph18%29.82 "Hg10 mi
3:56 PM98 °FSunny.7 mph12%29.84 "Hg10 mi
2:56 PM97 °FSunny.9 mph15%29.85 "Hg10 mi
1:56 PM92 °FSunny.No wind20%29.88 "Hg10 mi
12:56 PM91 °FSunny.6 mph23%29.90 "Hg10 mi
11:56 AM88 °FSunny.5 mph25%29.92 "Hg10 mi
10:56 AM85 °FSunny.3 mph31%29.93 "Hg10 mi
9:56 AM81 °FSunny.6 mph37%29.94 "Hg10 mi
8:56 AM78 °FSunny.No wind39%29.94 "Hg10 mi
7:56 AM73 °FSunny.No wind48%29.95 "Hg10 mi
6:56 AM67 °FSunny.No wind63%29.94 "Hg10 mi
5:56 AM62 °FClear.No wind75%29.93 "Hg10 mi
4:56 AM64 °FClear.No wind70%29.92 "Hg10 mi
3:56 AM66 °FClear.No wind65%29.91 "Hg10 mi
2:56 AM65 °FClear.No wind68%29.91 "Hg10 mi
1:56 AM68 °FClear.No wind63%29.91 "Hg10 mi
12:56 AM70 °FClear.No wind57%29.91 "Hg10 mi
Weather by CustomWeather, © 2015

See weather overviewHow to use our weather pages